Flag for Germany Weather past 2 weeks in Geretsried, Bavaria, Germany

Now
61 °F

Scattered clouds.


Feels Like: 61 °F
Forecast: 43 / 64 °F
Wind: 9 mph from Northeast

Location: Oberpfaffenhofen

Current Time: Oct 2, 2014 at 3:34:38 PM

Latest Report: Oct 2, 2014 at 3:20 PM


Visibility: N/A

Pressure: 30.36 "Hg

Humidity: 77%

Dew point: 54 °F

Location of GeretsriedLocation

Historic Weather in Geretsried — Graph

°F

Geretsried temperature yesterday

Maximum temperature yesterday: 64 °F (at 3:20 PM)
Minimum temperature yesterday: 54 °F (at 8:50 PM)
Average temperature yesterday: 59 °F

Past Weeks' High & Low Weather Summary

 TemperatureHumidityPressure
High75 °F (Sep 18, 2:50 PM)100% (Sep 18, 7:50 AM)30.39 "Hg (Sep 18, 7:50 AM)
Low36 °F (Sep 24, 7:50 AM)47% (Sep 18, 2:50 PM)29.89 "Hg (Sep 24, 3:50 PM)
Average58 °F78%30.15 "Hg
* Reported Sep 17 2:20 PM — Oct 2 2:20 PM, Geretsried, Weather by CustomWeather, © 2014

Note: Actual official high and low records may vary slightly from our data, if they occured in-between our weather recording intervals... More about our weather records

Advertising

Geretsried weather history for previous 24 hours

 ConditionsComfort  
Time TempWeatherWind HumidityBarometerVisibility
2:20 PM
Oct 2
63 °FPartly sunny.6 mph73%30.36 "HgN/A
1:50 PM61 °FPartly sunny.5 mph83%30.39 "HgN/A
1:20 PM59 °FPartly sunny.7 mph88%30.39 "HgN/A
12:50 PM59 °FPartly sunny.6 mph88%30.39 "HgN/A
12:20 PM57 °FPartly sunny.5 mph94%30.39 "Hg6 mi
11:50 AM55 °FLow clouds.6 mph100%30.39 "Hg6 mi
11:20 AM55 °FLow clouds.6 mph100%30.39 "Hg4 mi
10:50 AM55 °FLow clouds.5 mph94%30.39 "Hg4 mi
10:20 AM54 °FFog.3 mph94%30.39 "Hg2 mi
9:50 AM54 °FFog.1 mph94%30.39 "Hg2 mi
9:20 AM54 °FFog.2 mph94%30.39 "Hg1 mi
8:50 AM54 °FDense fog.No wind94%30.39 "Hg1 mi
8:20 AM54 °FFog.1 mph94%30.39 "Hg1 mi
7:50 AM52 °FFog.No wind94%30.39 "Hg1 mi
7:20 AM52 °FFog.2 mph94%30.39 "Hg0 mi
6:50 AM52 °FFog.2 mph100%30.36 "Hg0 mi
8:50 PM
Oct 1
54 °FPassing clouds.3 mph94%30.36 "Hg4 mi
8:20 PM57 °FPassing clouds.3 mph88%30.33 "Hg5 mi
7:50 PM57 °FPartly sunny.5 mph94%30.33 "Hg5 mi
7:20 PM59 °FBroken clouds.3 mph88%30.33 "Hg5 mi
6:50 PM59 °FBroken clouds.2 mph88%30.30 "Hg6 mi
6:20 PM59 °FBroken clouds.6 mph88%30.30 "HgN/A
5:50 PM61 °FPartly sunny.7 mph83%30.30 "HgN/A
5:20 PM63 °FScattered clouds.7 mph83%30.30 "HgN/A
4:50 PM64 °FScattered clouds.2 mph73%30.30 "HgN/A
4:20 PM63 °FScattered clouds.3 mph77%30.30 "HgN/A
3:50 PM63 °FScattered clouds.7 mph73%30.30 "HgN/A
3:20 PM64 °FPartly sunny.2 mph73%30.30 "HgN/A
Weather by CustomWeather, © 2014

See weather overviewHow to use our weather pages